RH
70 71 71 71 73 74 73 73 74 74 72 71 71 74 75 82 86 67 51 37 60 71 72 35 38 35 38 39 30 26 36 40 30 26 21 15 16 15 14 14 16 16 18 20 48
67 67 67 66 69 71 72 72 75 71 70 70 72 75 79 85 84 70 51 64 74 78 33 26 28 33 43 38 31 29 37 31 23 20 19 16 19 14 14 16 17 19 22 58 58
68 68 67 64 65 68 70 76 77 70 69 72 73 74 80 86 71 31 64 76 76 74 28 24 24 28 40 40 32 31 27 23 19 18 18 17 18 15 15 17 16 15 18 63 59
70 69 68 66 65 66 74 77 76 70 69 69 69 72 83 89 11 27 69 69 65 45 34 28 27 28 32 37 32 35 26 23 20 17 18 17 14 15 16 15 13 14 15 61 62
76 72 70 68 68 70 76 77 76 75 70 69 68 70 86 70 57 30 68 71 54 40 39 36 34 35 37 32 29 29 27 23 20 20 20 17 19 17 18 16 15 14 15 50 60
79 79 78 72 72 73 78 79 77 76 74 68 67 73 94 64 21 25 24 26 35 30 21 22 24 24 27 28 32 26 26 26 26 26 23 20 19 21 18 16 16 16 19 19 46
78 80 80 76 77 78 78 78 75 74 73 70 70 72 85 52 23 19 23 20 13 13 14 15 18 18 23 22 24 20 23 22 26 27 25 21 23 22 17 17 18 16 14 17 20
74 78 79 80 83 82 79 76 74 74 75 72 72 79 82 33 36 36 31 19 12 10 13 13 14 16 22 19 19 20 24 33 27 27 24 28 29 24 22 25 26 23 19 14 18
72 80 80 79 81 81 78 75 75 75 71 73 89 89 81 44 35 30 28 16 16 18 14 8 14 13 17 22 25 27 33 35 28 19 21 24 24 26 26 25 24 24 23 17 16
74 77 80 80 81 80 76 74 73 72 66 58 57 85 59 27 20 11 11 12 18 19 24 15 16 17 20 22 32 30 31 26 26 25 26 32 32 29 28 28 30 27 26 21 23
71 76 80 80 79 78 71 72 47 51 45 48 51 57 44 31 16 11 12 15 20 25 34 38 28 30 15 19 19 22 21 20 17 14 25 28 33 27 28 27 26 26 27 25 22
68 73 79 81 79 75 68 62 51 52 70 41 39 39 28 23 31 20 13 20 25 24 33 43 50 30 23 20 18 17 17 17 14 15 20 24 24 18 30 29 26 28 26 22 25
70 73 78 82 77 65 59 55 47 56 82 49 28 26 26 24 22 17 15 23 26 28 36 44 39 31 30 29 21 18 18 18 20 21 22 30 29 28 27 33 29 27 23 20 21
71 72 82 82 65 63 64 47 47 65 95 48 30 29 18 22 28 12 11 19 26 26 30 36 29 32 34 34 30 36 26 25 28 32 36 28 38 27 23 26 29 26 22 19 36
72 70 81 79 82 75 56 49 50 72 44 21 23 16 17 28 26 26 15 24 26 23 26 32 23 30 31 28 26 29 27 30 31 37 42 36 44 25 29 25 22 22 19 17 20
71 73 78 76 78 68 58 60 70 72 63 27 24 25 35 30 27 26 25 25 23 27 28 30 26 24 23 19 20 22 31 38 41 42 51 38 41 32 33 27 22 18 17 17 20
74 76 75 68 84 67 71 83 76 95 30 21 22 20 20 36 35 33 32 32 38 47 47 33 29 26 22 26 23 28 43 60 64 64 50 33 41 33 29 24 25 26 26 29 25
76 79 82 67 76 78 82 84 96 38 36 22 31 21 22 20 33 33 32 37 35 36 42 47 49 30 25 27 28 30 31 50 65 64 49 38 53 52 35 33 44 43 41 34 27
78 95 95 87 80 83 97 86 61 45 23 37 37 29 29 25 24 23 26 24 26 30 44 52 45 32 30 34 31 32 45 30 50 60 65 54 41 31 26 59 55 53 46 39 62
98 98 96 76 87 92 97 73 65 40 36 41 52 40 48 36 29 27 23 23 29 35 37 32 50 30 25 26 40 38 30 41 56 70 59 60 58 53 56 68 63 63 58 46 48
96 93 75 76 89 96 96 79 58 44 43 42 52 54 47 42 33 34 30 27 20 22 22 24 39 41 31 40 44 61 62 66 43 66 58 77 64 69 71 69 73 82 63 53 47
96 93 76 86 98 97 93 66 61 56 49 49 47 46 51 36 34 38 35 32 28 28 29 34 36 40 34 24 30 47 58 66 91 70 77 66 53 28 62 61 74 83 60 45 36
99 91 80 88 98 97 88 74 61 59 55 53 49 46 46 37 42 37 43 33 30 34 39 32 46 69 36 36 45 56 44 40 75 91 88 87 55 36 40 62 69 79 75 48 45
99 99 94 97 89 92 89 82 74 53 70 59 58 49 51 44 41 46 44 40 37 30 58 49 51 51 56 61 48 41 34 34 75 95 89 76 73 46 40 52 66 68 70 53 54
99 96 90 98 95 93 88 87 84 76 47 61 65 60 57 47 48 46 44 60 52 61 54 49 57 53 48 44 40 39 37 33 34 44 79 59 46 30 36 47 56 63 68 48 46
99 100 94 97 82 83 79 78 77 68 76 84 85 74 74 73 50 56 70 76 75 65 68 69 69 58 58 49 44 49 41 38 32 30 29 31 34 23 39 33 45 44 55 61 67
97 94 97 84 90 92 83 79 87 56 60 64 94 98 89 61 73 70 69 71 75 77 74 74 73 74 63 56 58 66 48 41 35 29 29 35 33 65 64 49 68 76 72 74 71
Wind_Speed
13 15 16 17 18 19 19 20 20 22 22 23 24 25 26 24 26 4 8 14 10 6 5 4 3 4 2 4 4 5 2 6 11 8 14 9 6 3 5 6 3 6 8 8 13
12 14 15 17 18 19 20 21 21 21 23 24 24 24 24 24 8 12 13 10 14 10 6 8 5 5 2 4 4 6 5 10 5 8 12 15 5 14 4 6 6 5 3 6 17
14 14 16 18 19 19 21 21 21 24 23 22 23 22 24 18 6 8 4 7 9 9 2 2 2 6 5 2 5 5 10 5 9 10 10 17 8 7 6 6 10 7 5 10 11
13 15 17 19 19 21 19 21 23 25 25 23 23 23 23 1 6 3 4 5 7 6 3 4 4 4 4 7 7 8 12 7 7 11 8 15 15 9 9 11 9 11 6 10 13
13 15 17 18 20 21 21 22 23 24 24 23 21 19 9 3 14 8 4 4 3 5 5 3 3 3 6 5 7 13 13 14 12 9 8 10 9 12 9 13 12 9 7 13 16
13 14 15 19 20 21 21 23 24 24 23 22 20 14 2 9 7 4 4 4 7 3 4 4 6 6 6 8 8 7 9 9 5 4 6 11 13 4 5 11 11 9 12 11 15
13 13 15 18 19 21 23 25 27 26 24 22 18 6 5 22 5 9 12 4 5 5 4 3 3 4 2 5 2 4 7 8 3 3 5 8 17 7 9 8 9 14 18 12 11
15 14 15 18 18 21 25 28 30 29 24 20 9 5 12 7 6 11 9 8 7 7 5 6 4 4 3 3 8 5 6 7 4 3 5 2 25 8 6 8 13 15 18 19 12
15 14 15 17 19 21 26 31 33 28 15 7 5 4 13 12 6 8 8 4 3 4 4 7 3 6 2 1 4 3 12 10 9 8 7 8 22 4 9 9 13 15 17 19 17
15 16 15 17 19 22 28 33 23 9 2 6 3 3 8 5 1 5 3 3 0 5 5 4 2 4 2 5 12 7 7 5 9 4 3 8 16 8 7 7 10 17 15 16 10
15 15 16 16 20 23 20 7 8 5 5 7 6 9 13 7 6 3 5 6 1 2 5 3 4 7 21 10 13 4 5 12 8 14 4 11 12 12 8 11 15 19 15 12 16
15 15 16 16 19 23 7 6 7 7 15 15 23 23 26 12 10 22 8 6 7 11 5 5 13 17 5 9 10 10 12 17 15 13 9 14 17 18 7 11 16 21 19 16 8
16 17 18 14 21 4 6 11 15 8 6 15 12 11 11 17 17 29 7 4 6 6 11 13 10 8 11 10 10 14 12 12 16 7 6 5 16 11 10 9 15 19 16 17 10
14 16 16 16 4 8 3 16 15 4 5 9 7 10 9 9 9 14 16 10 6 11 8 12 15 17 13 12 12 20 6 13 10 6 12 8 15 15 14 16 13 16 15 15 7
14 15 13 8 4 4 7 14 14 1 6 3 4 5 8 9 5 4 12 5 9 6 6 8 4 8 15 17 11 19 9 12 12 7 1 4 3 19 6 18 18 14 16 17 8
12 14 12 5 2 5 9 13 2 1 10 8 0 2 3 8 5 7 5 3 6 6 7 8 4 4 6 7 5 4 5 3 2 2 9 4 6 20 6 10 14 17 19 18 9
10 9 8 3 4 5 8 5 3 5 9 3 12 12 16 8 5 4 5 9 6 4 5 8 11 6 5 7 11 6 4 4 3 2 14 5 9 16 9 15 12 17 18 20 20
10 10 5 6 5 4 4 3 5 3 7 19 17 14 5 10 8 5 3 8 8 4 5 5 9 5 1 7 8 9 10 8 5 8 12 4 7 6 4 7 10 12 19 20 19
10 3 3 5 6 3 2 5 6 7 7 12 19 7 5 16 12 9 2 3 7 8 8 3 6 3 2 2 3 5 5 11 6 3 5 6 14 11 19 7 12 14 18 24 7
2 3 5 3 6 3 3 8 8 4 14 8 7 6 13 17 10 12 5 12 6 8 6 3 2 4 5 5 5 3 4 1 1 4 13 6 6 9 5 11 15 14 20 27 11
3 3 5 3 4 2 6 6 7 9 14 7 12 13 15 16 4 6 5 7 13 9 7 5 2 5 3 4 6 7 5 6 3 4 7 6 5 6 6 4 10 18 19 15 15
1 2 3 3 2 2 8 6 7 11 13 12 11 15 20 6 5 1 5 4 9 9 4 3 3 3 6 7 2 1 2 4 3 6 4 6 11 7 5 6 11 12 21 18 13
1 2 5 6 3 5 4 11 12 13 12 9 12 10 18 4 4 3 1 5 7 7 6 5 3 3 7 3 8 7 2 5 4 2 3 4 6 11 8 5 10 6 17 17 17
1 2 5 1 2 3 6 8 6 7 6 9 13 14 18 7 3 5 7 1 7 5 4 2 2 5 5 2 3 7 12 9 2 2 4 8 12 17 16 3 4 9 19 12 19
2 4 3 3 4 3 6 6 13 10 10 6 8 13 8 5 2 5 5 9 6 8 2 3 6 5 7 6 6 11 15 14 13 12 8 9 15 17 11 6 5 6 14 18 14
3 2 2 3 6 6 8 6 12 18 4 5 3 15 8 3 3 5 3 1 1 6 4 4 4 3 5 5 10 16 16 14 18 17 16 17 18 9 10 11 6 2 2 10 10
2 2 0 5 3 3 4 10 8 7 7 9 7 6 9 5 2 3 3 4 5 1 3 2 2 3 9 6 9 13 15 14 17 16 11 16 10 3 5 6 9 7 7 8 10
Wind_Direction
359 357 354 350 345 341 339 337 337 335 332 330 331 329 330 332 325 307 243 223 194 200 144 126 174 193 168 244 193 134 125 207 238 183 252 305 322 335 274 280 244 209 177 209 142
357 353 349 346 343 338 338 338 334 334 331 330 330 328 327 333 321 276 246 254 219 157 176 197 199 168 232 229 217 161 194 225 220 226 271 290 282 294 269 291 285 310 355 102 138
346 343 341 342 343 337 335 331 330 331 329 328 326 328 325 333 322 250 206 199 173 176 274 222 195 167 210 252 232 213 232 242 265 253 253 279 280 260 252 251 229 237 249 162 167
336 336 338 337 338 335 330 326 325 326 326 324 325 327 323 328 278 323 153 208 180 169 192 205 185 168 204 222 241 255 262 243 255 260 265 267 275 257 230 236 233 216 218 164 179
328 329 330 329 327 327 323 317 316 317 318 319 320 327 340 302 250 272 219 202 179 177 209 222 226 178 214 231 247 249 261 265 258 257 268 274 266 260 264 264 263 264 250 182 186
324 318 320 322 321 320 316 310 309 308 309 310 309 320 252 270 248 228 94 249 247 210 254 214 226 205 260 239 235 275 268 259 269 296 243 270 281 270 270 270 284 286 274 257 189
334 335 325 322 318 316 311 308 306 301 301 300 296 261 243 245 272 309 325 250 216 199 233 198 259 179 281 305 273 257 301 309 247 230 270 292 280 240 255 306 304 308 290 260 223
331 325 327 325 318 313 311 307 303 299 297 290 269 205 250 249 248 262 245 266 248 259 215 239 216 261 219 285 340 346 303 285 165 349 263 288 276 301 296 337 320 308 313 273 249
343 332 329 326 318 316 311 306 300 300 290 235 165 200 263 302 245 248 190 236 314 330 265 249 159 195 335 93 352 269 260 260 291 217 250 239 280 269 313 312 306 312 314 297 260
342 339 332 327 318 319 315 305 292 305 128 152 237 289 255 251 112 313 237 255 64 322 322 160 169 159 70 141 233 214 249 235 257 247 267 272 274 276 276 286 293 304 306 307 251
346 342 335 329 319 323 329 337 5 347 16 268 270 266 292 298 328 208 13 341 315 211 220 232 158 199 219 207 234 206 268 268 276 276 275 265 263 279 273 293 296 293 292 282 273
340 343 338 329 319 322 335 29 7 281 295 265 258 256 254 277 295 283 167 191 175 220 169 269 237 224 203 222 235 245 250 265 278 269 258 267 272 276 268 275 281 276 282 284 286
342 340 340 327 320 358 325 13 336 340 274 294 237 244 233 190 226 256 199 196 195 207 202 214 225 199 208 232 229 240 230 254 248 264 247 293 280 282 275 264 272 266 270 280 269
342 342 343 333 15 325 341 340 329 308 304 276 243 251 191 179 233 220 201 177 195 215 216 242 240 249 249 242 217 259 216 252 255 272 279 182 279 277 278 270 267 265 276 273 180
337 339 343 344 285 330 296 320 319 34 311 248 236 187 156 195 326 217 177 163 197 189 153 231 211 215 231 241 208 253 210 232 250 260 284 245 289 275 342 288 286 279 277 284 263
331 331 338 334 338 256 324 310 352 56 253 300 325 278 149 236 304 342 159 242 187 222 259 240 258 267 225 263 208 302 273 226 214 176 252 215 193 276 248 262 281 286 290 291 289
320 328 329 300 257 329 327 356 59 216 318 280 7 339 325 281 235 226 233 202 180 160 234 271 262 240 196 255 273 193 100 304 306 279 261 222 239 262 276 273 283 299 296 303 304
321 314 264 230 251 30 345 54 221 280 259 307 350 320 285 310 260 234 241 235 236 225 192 204 295 160 352 181 217 218 193 202 219 244 268 243 251 255 264 320 335 331 336 311 282
339 343 284 242 212 122 76 200 225 201 239 358 335 327 346 352 345 346 26 286 239 222 229 173 247 31 59 259 110 289 171 210 215 173 279 247 273 307 280 17 17 331 334 344 337
19 15 266 292 127 109 180 238 229 280 332 6 320 320 335 326 341 353 323 22 8 4 303 153 246 43 319 323 59 86 268 65 21 206 253 259 272 254 344 4 352 350 332 340 339
48 6 267 328 104 171 226 238 290 257 270 281 321 301 292 299 324 315 298 57 14 357 34 35 69 299 2 70 20 352 360 8 294 161 236 263 260 183 112 73 27 338 323 319 328
338 285 255 18 164 212 235 240 229 274 278 291 297 277 279 254 282 278 299 357 351 342 18 332 142 296 250 295 219 132 17 329 308 324 313 265 261 272 185 115 86 312 305 312 329
245 258 300 112 191 236 274 285 275 285 288 279 266 303 298 256 280 223 4 335 26 7 339 342 6 345 311 36 42 69 25 1 215 232 258 271 271 3 0 103 87 332 306 315 331
68 315 307 112 236 284 302 275 261 254 272 274 276 267 273 254 230 288 310 237 330 309 227 10 193 188 235 301 337 301 308 319 105 243 330 279 291 312 310 334 67 25 298 316 298
152 240 212 289 289 262 274 296 277 276 266 269 286 241 240 264 283 286 327 343 20 2 314 161 221 232 242 258 274 280 288 291 275 267 229 272 276 296 295 269 133 86 301 297 296
164 208 289 281 274 284 292 249 292 293 250 306 281 311 319 329 254 281 17 7 301 337 15 347 281 243 268 302 303 294 283 279 271 266 271 265 263 326 335 261 128 185 351 359 18
191 232 23 257 275 293 226 263 267 308 285 221 249 279 302 288 291 253 230 242 237 287 297 300 335 22 280 323 314 282 267 255 249 248 251 263 291 20 303 133 31 40 42 10 16